Location: Goettingen
(51.5300°N, 9.9433°E)
Time: 07:01:45
(UTC+01:00)

ISS - Pass Details

Date: 13 November 2018
Orbit: 401 x 409 km, 51.6° (Epoch: 21 November)

Event Time Altitude Azimuth Distance (km) Brightness Sun altitude
Exits shadow 05:01:39 18° 154° (SSE) 1,073 -1.5 -23.7°
Drops below altitude 10° 05:02:45 10° 143° (SE) 1,459 -0.6 -23.5°
Sets 05:04:57 0° 133° (SE) 2,318 0.7 -23.1°
